Date String (YYYY-MM-DD hh:mm:ss) UTC,Instrument flags,Ambient pressure (hPa),Sample flow (lpm),Bypass flow (lpm),Sample temperature (°C),Ambient temperature (°C),ASC tube jacket temperature (°C),LED temperature (°C),Box temperature (°C),Sample RH (%),Span deviation,Mass concentration (μg/m³),Mass concentration (μg/m³),Mass concentration (μg/m³)
DateTimeUTC,F1_M11,P_M11,Q1_M11,Q2_M11,T1_M11,T2_M11,T3_M11,T4_M11,T5_M11,U1_M11,ZSPAN_M11,X0_M11,X2_M11,X1_M11
2022-10-30 22:00:00,,0825.3,5.00,0.00,29.4,28.1,00.0,38.1,31.2,07.0,0000.0,0007.20,0004.30,0003.99
2022-10-30 22:01:00,,0825.3,5.00,0.00,29.4,28.1,00.0,38.1,31.2,06.9,0000.0,0007.10,0004.32,0004.00
2022-10-30 22:02:00,,0825.3,5.00,0.00,29.4,28.1,00.0,38.1,31.2,06.9,0000.0,0007.02,0004.34,0004.00
2022-10-30 22:03:00,,0825.3,5.00,0.00,29.4,28.2,00.0,38.1,31.2,07.0,0000.0,0007.01,0004.36,0004.00
2022-10-30 22:04:00,,0825.4,5.00,0.00,29.4,28.2,00.0,38.1,31.2,06.9,0000.0,0007.42,0004.33,0003.98
2022-10-30 22:05:00,,0825.3,5.00,0.00,29.4,28.3,00.0,38.1,31.3,07.0,0000.0,0007.83,0004.35,0003.98
2022-10-30 22:06:00,,0825.4,5.01,0.00,29.4,28.2,00.0,38.1,31.3,06.9,0000.0,0007.88,0004.35,0003.98
2022-10-30 22:07:00,,0825.4,4.99,0.00,29.5,28.3,00.0,38.2,31.3,06.9,0000.0,0007.82,0004.34,0003.98
2022-10-30 22:08:00,,0825.3,5.00,0.00,29.5,28.3,00.0,38.2,31.3,06.9,0000.0,0008.00,0004.35,0003.99
2022-10-30 22:09:00,,0825.4,5.00,0.00,29.5,28.3,00.0,38.2,31.3,06.9,0000.0,0008.08,0004.35,0003.99
2022-10-30 22:10:00,,0825.4,5.01,0.00,29.5,28.3,00.0,38.2,31.3,06.8,0000.0,0008.39,0004.35,0004.00
2022-10-30 22:11:00,,0825.4,4.99,0.00,29.5,28.2,00.0,38.2,31.3,06.8,0000.0,0008.77,0004.34,0004.00
2022-10-30 22:12:00,,0825.4,5.01,0.00,29.5,28.2,00.0,38.2,31.3,06.8,0000.0,0008.71,0004.31,0003.99
2022-10-30 22:13:00,,0825.4,5.00,0.00,29.5,28.2,00.0,38.2,31.3,06.9,0000.0,0008.97,0004.29,0003.99
2022-10-30 22:14:00,,0825.4,4.99,0.00,29.5,28.2,00.0,38.2,31.3,06.9,0000.0,0009.66,0004.29,0004.01
2022-10-30 22:15:00,,0825.4,5.00,0.00,29.5,28.2,00.0,38.3,31.4,06.9,0000.0,0009.93,0004.34,0004.05
2022-10-30 22:16:00,,0825.4,4.99,0.00,29.5,28.2,00.0,38.3,31.3,06.8,0000.0,0009.65,0004.35,0004.08
2022-10-30 22:17:00,,0825.4,5.00,0.00,29.5,28.1,00.0,38.3,31.3,06.8,0000.0,0009.68,0004.38,0004.11
2022-10-30 22:18:00,,0825.4,5.00,0.00,29.5,28.0,00.0,38.3,31.3,06.8,0000.0,0010.03,0004.44,0004.16
2022-10-30 22:19:00,,0825.4,5.00,0.00,29.5,28.0,00.0,38.3,31.3,06.8,0000.0,0010.16,0004.48,0004.19
2022-10-30 22:20:00,,0825.4,5.00,0.00,29.5,27.9,00.0,38.3,31.3,06.9,0000.0,0010.15,0004.53,0004.23
2022-10-30 22:21:00,,0825.4,5.01,0.00,29.5,28.0,00.0,38.3,31.3,06.9,0000.0,0010.14,0004.58,0004.27
2022-10-30 22:22:00,,0825.3,5.00,0.00,29.5,28.0,00.0,38.3,31.3,06.9,0000.0,0009.72,0004.64,0004.31
2022-10-30 22:23:00,,0825.4,5.00,0.00,29.5,28.0,00.0,38.3,31.3,06.9,0000.0,0009.73,0004.68,0004.36
2022-10-30 22:24:00,,0825.4,5.00,0.00,29.5,28.0,00.0,38.3,31.3,06.9,0000.0,0009.98,0004.72,0004.40
2022-10-30 22:25:00,,0825.3,5.00,0.00,29.5,27.9,00.0,38.3,31.2,06.9,0000.0,0009.52,0004.78,0004.45
2022-10-30 22:26:00,,0825.3,5.02,0.00,29.5,27.9,00.0,38.3,31.2,06.9,0000.0,0008.88,0004.83,0004.48
2022-10-30 22:27:00,,0825.3,5.00,0.00,29.5,27.9,00.0,38.3,31.2,06.9,0000.0,0008.95,0004.88,0004.53
2022-10-30 22:28:00,,0825.4,4.99,0.00,29.5,27.9,00.0,38.3,31.2,07.0,0000.0,0009.09,0004.91,0004.55
2022-10-30 22:29:00,,0825.3,4.99,0.00,29.5,27.9,00.0,38.3,31.2,06.9,0000.0,0009.12,0004.94,0004.57
2022-10-30 22:30:00,,0825.4,4.99,0.00,29.5,27.9,00.0,38.3,31.2,06.9,0000.0,0008.85,0004.98,0004.60
2022-10-30 22:31:00,,0825.3,5.02,0.00,29.5,27.9,00.0,38.3,31.2,06.9,0000.0,0008.82,0005.00,0004.62
2022-10-30 22:32:00,,0825.3,4.99,0.00,29.5,27.9,00.0,38.3,31.2,06.9,0000.0,0009.25,0005.01,0004.64
2022-10-30 22:33:00,,0825.4,5.00,0.00,29.5,27.9,00.0,38.3,31.2,06.9,0000.0,0009.46,0005.02,0004.66
2022-10-30 22:34:00,,0825.4,4.99,0.00,29.5,27.9,00.0,38.3,31.2,06.9,0000.0,0009.52,0005.04,0004.68
2022-10-30 22:35:00,,0825.3,4.99,0.00,29.5,27.9,00.0,38.3,31.3,06.9,0000.0,0009.13,0005.05,0004.70
2022-10-30 22:36:00,,0825.3,5.00,0.00,29.5,27.9,00.0,38.3,31.2,06.9,0000.0,0009.72,0005.05,0004.70
2022-10-30 22:37:00,,0825.3,5.00,0.00,29.5,27.9,00.0,38.3,31.3,06.9,0000.0,0009.94,0005.07,0004.73
2022-10-30 22:38:00,,0825.4,5.01,0.00,29.5,28.0,00.0,38.3,31.3,06.9,0000.0,0010.01,0005.07,0004.73
2022-10-30 22:39:00,,0825.3,5.00,0.00,29.5,28.0,00.0,38.3,31.3,07.0,0000.0,0009.82,0005.07,0004.74
2022-10-30 22:40:00,,0825.3,5.00,0.00,29.5,27.9,00.0,38.3,31.3,06.9,0000.0,0009.64,0005.07,0004.76
2022-10-30 22:41:00,,0825.3,4.99,0.00,29.5,27.9,00.0,38.3,31.3,06.9,0000.0,0009.68,0005.09,0004.79
2022-10-30 22:42:00,,0825.3,5.01,0.00,29.5,27.9,00.0,38.3,31.3,06.9,0000.0,0009.67,0005.10,0004.81
2022-10-30 22:43:00,,0825.4,5.00,0.00,29.5,27.9,00.0,38.3,31.3,06.9,0000.0,0009.31,0005.11,0004.82
2022-10-30 22:44:00,,0825.3,5.00,0.00,29.5,27.9,00.0,38.3,31.3,06.9,0000.0,0008.91,0005.11,0004.83
2022-10-30 22:45:00,,0825.3,5.00,0.00,29.5,28.0,00.0,38.3,31.3,06.9,0000.0,0008.90,0005.12,0004.83
2022-10-30 22:46:00,,0825.3,5.01,0.00,29.5,28.0,00.0,38.3,31.3,06.9,0000.0,0008.88,0005.11,0004.83
2022-10-30 22:47:00,,0825.4,5.00,0.00,29.5,28.0,00.0,38.3,31.3,06.9,0000.0,0009.02,0005.10,0004.83
2022-10-30 22:48:00,,0825.3,4.99,0.00,29.5,28.0,00.0,38.3,31.3,06.9,0000.0,0008.68,0005.10,0004.84
2022-10-30 22:49:00,,0825.4,5.00,0.00,29.5,28.0,00.0,38.3,31.3,06.8,0000.0,0008.62,0005.10,0004.85
2022-10-30 22:50:00,,0825.4,5.00,0.00,29.5,28.0,00.0,38.3,31.3,06.9,0000.0,0008.67,0005.11,0004.86
2022-10-30 22:51:00,,0825.3,4.99,0.00,29.5,28.0,00.0,38.3,31.3,06.9,0000.0,0008.69,0005.11,0004.86
2022-10-30 22:52:00,,0825.3,4.99,0.00,29.5,28.0,00.0,38.3,31.3,07.0,0000.0,0008.81,0005.11,0004.84
2022-10-30 22:53:00,,0825.3,5.02,0.00,29.5,28.0,00.0,38.3,31.3,06.9,0000.0,0009.03,0005.12,0004.82
2022-10-30 22:54:00,,0825.3,5.00,0.00,29.5,28.1,00.0,38.3,31.3,06.9,0000.0,0009.15,0005.15,0004.81
2022-10-30 22:55:00,,0825.3,5.00,0.00,29.6,28.2,00.0,38.3,31.4,06.9,0000.0,0009.19,0005.14,0004.78
2022-10-30 22:56:00,,0825.3,4.99,0.00,29.6,28.1,00.0,38.3,31.4,06.9,0000.0,0009.18,0005.12,0004.76
2022-10-30 22:57:00,,0825.3,5.00,0.00,29.6,28.1,00.0,38.3,31.4,07.0,0000.0,0009.16,0005.11,0004.74
2022-10-30 22:58:00,,0825.3,4.99,0.00,29.6,28.2,00.0,38.3,31.4,06.9,0000.0,0008.64,0005.14,0004.74
2022-10-30 22:59:00,,0825.3,5.00,0.00,29.6,28.1,00.0,38.4,31.4,06.8,0000.0,0008.50,0005.12,0004.74
